Regional Weather Roundup
Issued by NWS Huntsville, AL

Home | Current Version | Previous Version | Text Only | Print | Product List | Glossary On
Versions: 1 2 3 4 5 6 7 8 9 10 11 12 13 14 15 16 17 18 19 20 21 22 23 24 25 26 27
000
ASUS44 KHUN 050710
RWRHUN

WEATHER ROUNDUP FOR THE TENNESSEE VALLEY
NATIONAL WEATHER SERVICE HUNTSVILLE AL
200 AM CDT THU MAY 05 2016

ALZ001>004-050800-
NORTHWEST ALABAMA

CITY           SKY/WX    TMP DP  RH WIND       PRES   REMARKS
SHOALS AIRPORT CLEAR     53  44  71 NW3       29.88S
SHOALS TVA RES   N/A     48 N/A N/A MISG        N/A
$$

ALZ005>007-016-050800-
NORTH CENTRAL ALABAMA

CITY           SKY/WX    TMP DP  RH WIND       PRES   REMARKS
DECATUR AP     CLEAR     49  45  86 CALM      29.85F
HUNTSVILLE AP  CLEAR     50  45  83 NW3       29.84F
HUN NWS/UAH      N/A     51  44  75 NW2         N/A
MERIDIANVILLE  CLEAR     46  41  81 CALM      29.83F
REDSTONE ARSN  CLEAR     49  46  88 N5        29.83F
VINEMONT AP    FAIR      47  45  93 CALM      29.86F
$$

ALZ008>010-050800-
NORTHEAST ALABAMA

CITY           SKY/WX    TMP DP  RH WIND       PRES   REMARKS
ALBERTVILLE    CLEAR     52  48  87 N5        29.81F
FORT PAYNE     CLEAR     45  43  93 CALM      29.79F FOG
SCOTTSBORO AP  CLEAR     48  48 100 CALM      29.82F
SCOTTSBORO HCN   N/A     48 N/A N/A MISG        N/A
VALLEY HEAD      N/A     46 N/A N/A MISG        N/A
$$

TNZ076-096-097-050800-
SOUTHEASTERN MIDDLE TENNESSEE

CITY           SKY/WX    TMP DP  RH WIND       PRES   REMARKS
TULLAHOMA      CLEAR     41  41 100 NW3       29.83F
WINCHESTER     CLEAR     46  45  93 NW5       29.82F
$$

...SURROUNDING SITES...

CITY           SKY/WX    TMP DP  RH WIND       PRES   REMARKS
ATLANTA        CLEAR     53  48  83 NW10      29.74F
ANNISTON       CLEAR     56  50  80 VRB5      29.80F
BIRMINGHAM     PTCLDY    54  53  97 N5        29.85S
CHATTANOOGA    CLEAR     51  45  79 NW12      29.78F
DALTON         CLEAR     46  46 100 CALM      29.77F
GADSDEN        PTCLDY    48  48 100 CALM      29.82F FOG
GOLDEN TRNGL     N/A    N/A N/A N/A MISG        N/A
HALEYVILLE     FAIR      48  46  93 NW3       29.88F
JACKSON TN     CLEAR     49  44  83 CALM      29.89F
MEMPHIS        CLEAR     58  44  60 N6        29.91S
NASHVILLE      CLEAR     50  40  68 NW6       29.84F
OXFORD MS      FAIR      48  46  93 CALM      29.92R
ROME           CLEAR     50  48  93 NW5       29.77F
SAVANNAH       PTCLDY    46  45  93 CALM      29.87F
TUPELO         CLEAR     53  44  71 N8        29.88S
TUSCALOOSA     PTCLDY    54  53  97 N3        29.85S
$$

...GULF COAST WEATHER...

CITY           SKY/WX    TMP DP  RH WIND       PRES   REMARKS
GULFPORT       CLEAR     64  50  60 W6        29.84F
PASCAGOULA     PTCLDY    58  54  86 SW3       29.83F
MOBILE         PTCLDY    61  52  72 W5        29.83F
GULF SHORES    SUNNY     66  55  67 W8        29.82F
DESTIN         PTCLDY    72  54  53 W6        29.79F
PANAMA CITY    CLEAR     65  52  62 NW8       29.78F
APPALACHICOLA  CLEAR     61  51  70 NW3       29.78F
$$





USA.gov is the U.S. government's official web portal to all federal, state and local government web resources and services.